Bookmark and Share
Track history (hours):
 

Lions Gate Bridge

Last reported at 2014-Apr-25 05:26 UTC. Time now 2014-Apr-25 06:26 UTC.
Position N 35°37' E 139°46'.

Length 284.7 m; beam 40 m.

Type: Cargo ship. MMSI: 351086000.

NotesDate/timePositionNaut miles runAvg speedWind from/ knotsBaromVisibWave heightAir tempDewpointWater temp
2014-Apr-25 05:26N 35°37' E 139°46'0 0.0
2014-Apr-25 04:29N 35°37' E 139°46'0 0.0
2014-Apr-25 03:32N 35°37' E 139°46'0 0.0
2014-Apr-25 02:26N 35°37' E 139°46'0 0.0
2014-Apr-25 01:32N 35°37' E 139°46'0 0.0
2014-Apr-25 00:32N 35°37' E 139°46'0 0.0
2014-Apr-24 23:32N 35°37' E 139°46'0 0.0
2014-Apr-24 22:29N 35°37' E 139°46'0 0.0
2014-Apr-24 21:32N 35°37' E 139°46'0 0.0
2014-Apr-24 20:29N 35°37' E 139°46'0 0.0
2014-Apr-24 19:32N 35°37' E 139°46'0 0.0
2014-Apr-24 18:32N 35°37' E 139°46'0 0.0
2014-Apr-24 17:32N 35°37' E 139°46'0 0.0
2014-Apr-24 16:32N 35°37' E 139°46'0 0.0
2014-Apr-24 15:32N 35°37' E 139°46'3 3.3
2014-Apr-24 14:34N 35°34' E 139°49'1110.5
2014-Apr-24 13:33N 35°24' E 139°46'1212.2
2014-Apr-24 12:33N 35°12' E 139°47'8 7.8
2014-Apr-24 11:33N 35°05' E 139°44'9 9.4
2014-Apr-24 10:33N 34°60' E 139°34'  
2014-Apr-21 02:33N 23°58' E 118°26'8621.4
2014-Apr-20 22:33N 23°06' E 117°12'2121.3
2014-Apr-20 21:34N 22°53' E 116°54'2221.7
2014-Apr-20 20:33N 22°39' E 116°36'140 4.8
2014-Apr-19 15:07N 22°18' E 114°06'2 0.1
2014-Apr-18 20:06N 22°20' E 114°07'15011.9
2014-Apr-18 07:33N 22°47' E 116°47'1919.1
2014-Apr-18 06:33N 22°59' E 117°03'4418.3
2014-Apr-18 04:08N 23°28' E 117°40'1118.3
2014-Apr-18 03:32N 23°34' E 117°50'1818.0
2014-Apr-18 02:33N 23°43' E 118°06'1818.4
2014-Apr-18 01:33N 23°55' E 118°21'1817.6
2014-Apr-18 00:33N 24°13' E 118°21'10 9.8
2014-Apr-17 23:33N 24°18' E 118°12'10 9.8
2014-Apr-17 22:34N 24°25' E 118°04'3 2.6
2014-Apr-17 21:16N 24°27' E 118°01'0 0.0
2014-Apr-17 20:28N 24°27' E 118°01'0 0.0
2014-Apr-17 19:28N 24°27' E 118°01'0 0.0
2014-Apr-17 18:22N 24°27' E 118°01'0 0.0
2014-Apr-17 17:28N 24°27' E 118°01'0 0.0
2014-Apr-17 16:28N 24°27' E 118°01'0 0.0
2014-Apr-17 06:34N 24°27' E 118°01'0 0.0
2014-Apr-17 05:34N 24°27' E 118°01'0 0.0
2014-Apr-17 04:34N 24°27' E 118°01'2 2.5
2014-Apr-17 03:33N 24°26' E 118°04'10 9.8
2014-Apr-17 02:33N 24°20' E 118°12'5 5.5
2014-Apr-17 01:33N 24°15' E 118°16'8 8.2
2014-Apr-17 00:33N 24°14' E 118°25'0 0.1
2014-Apr-16 23:33N 24°14' E 118°25'0 0.1
2014-Apr-16 22:21N 24°14' E 118°25'0 0.1
2014-Apr-16 21:33N 24°14' E 118°25'0 0.1
2014-Apr-16 20:33N 24°14' E 118°24'0 0.1
2014-Apr-16 19:33N 24°14' E 118°25'0 0.1
2014-Apr-16 18:33N 24°14' E 118°24'0 0.0
2014-Apr-16 17:33N 24°14' E 118°24'0 0.2
2014-Apr-16 16:21N 24°15' E 118°24'0 0.0
2014-Apr-16 14:03N 24°15' E 118°25'0 0.0
2014-Apr-16 13:21N 24°15' E 118°25'0 0.0
2014-Apr-16 12:33N 24°14' E 118°25'0 0.0
2014-Apr-16 11:06N 24°14' E 118°25'0 0.0
2014-Apr-16 10:30N 24°14' E 118°25'0 0.0
2014-Apr-16 09:33N 24°15' E 118°25'0 0.0
2014-Apr-16 08:27N 24°14' E 118°25'0 0.2
2014-Apr-16 07:33N 24°14' E 118°24'0 0.1
2014-Apr-16 06:30N 24°14' E 118°24'0 0.1
2014-Apr-16 05:33N 24°14' E 118°24'0 0.1
2014-Apr-16 04:33N 24°14' E 118°24'0 0.1
2014-Apr-16 03:33N 24°14' E 118°24'0 0.1
2014-Apr-16 02:33N 24°14' E 118°24'0 0.1
2014-Apr-16 01:18N 24°14' E 118°24'0 0.1
2014-Apr-16 00:33N 24°14' E 118°25'9 8.6
2014-Apr-15 23:33N 24°06' E 118°27'9613.7
2014-Apr-15 16:33N 23°00' E 119°43'1414.4
2014-Apr-15 15:34N 22°51' E 119°54'1515.2
2014-Apr-15 14:33N 22°39' E 120°05'14 6.9
2014-Apr-15 12:34N 22°33' E 120°18'1 1.2
2014-Apr-15 11:32N 22°33' E 120°20'0 0.0
2014-Apr-15 10:32N 22°33' E 120°20'0 0.0
2014-Apr-15 09:32N 22°33' E 120°20'0 0.0
2014-Apr-15 08:32N 22°33' E 120°20'0 0.0
2014-Apr-15 06:32N 22°33' E 120°20'  

Dump ship's entire track history

sailing weather and tide predictions

Lions Gate Bridge — H9LV — position and weather